Location: Kerforn
(47.7529°N, 3.3882°W)
Time: 04:22:15
(UTC+00:00)

Daily predictions for brighter satellites

Satellite Brightness Start Highest point End
(mag) Time Altitude Azimuth Time Altitude Azimuth Time Altitude Azimuth
Cosmos 2237 Rocket 4.1 03:19:53 24° NNE 03:19:53 24° NNE 03:21:58 10° NNE
CZ-4C R/B 3.9 03:21:54 29° NNE 03:21:54 29° NNE 03:24:54 10° NE
Cosmos 2219 Rocket 4.4 03:26:42 18° N 03:26:42 18° N 03:28:16 10° NNE
Cosmos 1943 Rocket 3.6 03:37:56 34° NE 03:37:56 34° NE 03:42:48 10° ESE
Lacrosse 5 3.8 03:45:19 24° E 03:45:19 24° E 03:47:25 10° ESE
ATLAS CENTAUR R/B 3.8 03:52:19 22° NE 03:52:19 22° NE 03:53:54 10° NE
SL-16 R/B 2.8 04:01:35 54° NE 04:01:35 54° NE 04:06:03 10° NNE
MSX 4.2 03:55:08 10° NNE 04:00:17 61° ENE 04:00:17 61° ENE
CZ-2C R/B 3.7 03:56:05 10° NNE 04:00:53 37° E 04:01:40 35° ESE
Cosmos 2251 Rocket 4.4 04:03:08 47° NE 04:03:08 47° NE 04:07:03 10° NNE
ADEOS II 4.5 04:01:13 10° N 04:01:45 12° N 04:01:45 12° N
IDEFIX/ARIANE 42P 3.9 04:02:46 10° NNE 04:05:34 32° N 04:05:34 32° N
BREEZE-M DEB (TANK) 3.6 04:09:15 57° ENE 04:09:15 57° ENE 04:17:12 10° E
Cosmos 2369 Rocket 3.1 04:06:41 23° N 04:10:01 46° NE 04:15:30 10° SE
Cosmos 2333 Rocket 4.2 04:37:44 15° NNW 04:37:44 15° NNW 04:40:01 10° N
ADEOS 3.4 04:34:34 10° NNE 04:39:45 79° WNW 04:39:45 79° WNW
USA 215 3.6 04:33:43 10° NE 04:40:00 51° NNW 04:41:24 44° WNW
Meteor 2-3 Rocket 3.8 04:35:13 10° N 04:41:00 79° ENE 04:46:48 10° SSE
Cosmos 1842 Rocket 4.0 04:40:30 46° SSE 04:41:34 61° E 04:46:00 10° NNE
BREEZE M DEB (TANK) 3.4 04:45:29 53° NE 04:45:29 53° NE 04:50:14 10° E
Cosmos 921 Rocket 4.2 04:41:16 10° N 04:45:31 42° ENE 04:49:40 10° SE
Cosmos 1484 Rocket 4.3 04:43:46 10° NNE 04:47:28 36° E 04:51:09 10° SSE
BREEZE M DEB (TANK) 4.4 04:31:37 10° WNW 04:50:32 52° SW 04:55:21 10° SSE
Meteor 2-10 Rocket 3.9 04:58:00 45° NW 04:58:00 45° NW 05:02:15 10° N
Cosmos 2221 2.7 04:56:38 25° S 04:59:01 70° E 05:03:20 10° NNE
Cosmos 614 Rocket 4.4 04:55:34 16° S 04:59:36 63° ESE 05:04:45 10° NNE
COSMO-SKYMED 1 3.4 04:56:11 10° SSE 05:00:24 52° ENE 05:04:38 10° N
Cosmos 2237 Rocket 3.7 05:01:42 21° NW 05:01:42 21° NW 05:05:23 10° N
STARLINK-1110 4.5 05:01:53 31° ESE 05:01:53 31° ESE 05:03:56 10° ENE
STARLINK-1122 4.5 05:02:16 31° ESE 05:02:16 31° ESE 05:04:21 10° ENE
STARLINK-1126 4.5 05:02:29 31° ESE 05:02:29 31° ESE 05:04:34 10° ENE
STARLINK-1082 4.4 05:02:43 32° ESE 05:02:43 32° ESE 05:04:48 10° ENE
STARLINK-1100 4.4 05:02:56 32° ESE 05:02:56 32° ESE 05:05:02 10° ENE
STARLINK-1083 4.4 05:03:08 32° ESE 05:03:08 32° ESE 05:05:15 10° ENE
STARLINK-1125 4.4 05:03:21 32° ESE 05:03:21 32° ESE 05:05:29 10° ENE
STARLINK-1157 4.5 05:05:01 30° NNE 05:05:01 30° NNE 05:07:35 10° ENE
STARLINK-1159 4.4 05:07:10 30° NNE 05:07:10 30° NNE 05:09:51 10° ENE
CZ-4C R/B 3.5 05:07:04 24° NW 05:08:24 26° NNW 05:13:47 10° NE
Cosmos 2219 Rocket 4.3 05:08:25 11° NNW 05:08:38 11° NNW 05:10:12 10° NNW
STARLINK-1171 4.4 05:09:25 31° N 05:09:25 31° N 05:12:12 10° ENE
STARLINK-1155 4.3 05:11:30 31° N 05:11:30 31° N 05:14:23 10° ENE
Meteor 1-27 4.1 05:06:05 10° S 05:11:38 87° W 05:17:14 10° N
STARLINK-1166 4.3 05:13:43 31° N 05:13:45 31° N 05:16:43 10° ENE
USA 267 4.3 05:09:45 10° S 05:14:14 24° SW 05:14:14 24° SW
STARLINK-1179 4.4 05:15:39 25° NNE 05:15:39 25° NNE 05:17:33 10° ENE
STARLINK-1176 4.4 05:16:11 25° NNE 05:16:11 25° NNE 05:18:05 10° ENE
STARLINK-1165 4.2 05:15:52 31° N 05:16:00 32° N 05:18:59 10° ENE
Meteor 1-31 Rocket 2.6 05:12:17 10° N 05:16:06 70° WNW 05:16:45 56° SW
STARLINK-1169 4.2 05:18:02 31° N 05:18:15 32° N 05:21:14 10° ENE
STARLINK-1178 4.2 05:20:11 31° N 05:20:31 32° N 05:23:30 10° ENE
Cosmos 1943 Rocket 2.4 05:19:34 30° WNW 05:21:41 44° WSW 05:26:51 10° S
Meteor 2-2 Rocket 4.5 05:16:35 10° S 05:22:37 80° E 05:28:40 10° NNE
STARLINK-1120 4.2 05:22:15 31° N 05:22:41 32° N 05:25:41 10° ENE
CZ-4B R/B 2.4 05:19:08 10° N 05:22:49 74° WNW 05:24:16 34° SSW
SKYMED 3 4.5 05:20:06 10° SSE 05:24:27 90° NNE 05:28:49 10° NNW
STARLINK-1131 4.2 05:24:27 30° NNW 05:25:00 33° N 05:28:00 10° ENE
Lacrosse 5 2.4 05:24:33 35° WSW 05:25:15 37° SW 05:29:53 10° SSE
STARLINK-1190 4.2 05:26:42 30° NNW 05:27:21 33° N 05:30:21 10° ENE
Cosmos 1605 Rocket 4.4 05:22:29 10° NNW 05:28:05 36° W 05:33:35 10° SSW
STARLINK-1084 4.4 05:26:34 22° SSW 05:28:47 45° SE 05:32:41 10° ENE
ATLAS CENTAUR R/B 2.9 05:28:31 22° NW 05:28:48 23° NW 05:32:17 10° NNE
STARLINK-1121 4.4 05:27:42 21° SSW 05:30:04 46° SE 05:34:01 10° ENE
Cosmos 2016 Rocket 4.3 05:27:55 10° N 05:34:11 72° E 05:40:28 10° SSE
ALOS 2.4 05:29:29 10° NNE 05:34:11 79° ESE 05:38:51 10° S
STARLINK-1106 4.3 05:32:28 20° SSW 05:35:00 50° SE 05:38:59 10° ENE
BREEZE-M DEB (TANK) 4.5 05:34:42 30° W 05:36:55 80° N 05:49:06 10° E
CZ-2C R/B 3.2 05:34:25 10° N 05:39:02 34° WNW 05:41:04 25° WSW
STARLINK-1112 4.2 05:37:14 19° SW 05:39:56 54° SE 05:43:58 10° ENE
Cosmos 1869 3.2 05:37:16 10° SSW 05:41:13 62° WNW 05:45:10 10° N
Cosmos 1400 Rocket 4.0 05:37:31 10° SSE 05:41:21 45° E 05:45:16 10° NNE
ATLAS 2AS CENTAUR R/B 3.9 05:36:05 10° NW 05:43:25 42° NNE 05:50:13 10° ESE
FENGYUN 3A 3.7 05:38:37 10° NNE 05:44:06 89° ESE 05:49:33 10° SSW
Cosmos 1633 2.5 05:40:39 10° NNW 05:44:15 63° W 05:47:51 10° S
Sich 1 3.1 05:40:02 10° N 05:44:21 81° E 05:48:40 10° SSE
Cosmos 1805 Rocket 3.4 05:40:13 10° NNW 05:44:33 74° W 05:48:52 10° S
SL-16 R/B 3.4 05:43:29 21° WNW 05:45:04 24° NW 05:49:39 10° N
Meteor PRIRODA 3.7 05:42:59 10° N 05:46:37 51° WNW 05:50:10 10° SSW
IDEFIX/ARIANE 42P 4.3 05:44:08 10° NNW 05:46:24 14° NW 05:46:24 14° NW
H-2A R/B 3.1 05:43:32 10° N 05:47:39 40° WNW 05:51:40 11° SW
ADEOS Rocket 3.6 05:41:42 10° SSE 05:47:58 68° ENE 05:55:00 10° N
SKYMED 2 3.7 05:44:16 10° S 05:48:30 52° W 05:52:45 10° NNW
Cosmos 2084 3.8 05:44:33 10° SSW 05:49:01 70° SE 05:53:30 10° NE
STARLINK-1129 4.1 05:48:48 22° NW 05:50:26 37° NNE 05:53:30 10° E
TELKOM 3 3.2 05:50:43 43° NNW 05:51:02 49° N 05:53:06 10° E
Cosmos 1500 Rocket 4.3 05:47:47 10° NNW 05:51:39 30° W 05:55:28 10° SSW
STARLINK-1134 4.0 05:51:12 21° NW 05:52:58 38° NNE 05:56:06 10° E
Cosmos 2369 Rocket 2.8 05:48:50 10° NW 05:53:53 33° WSW 05:58:53 10° SSW
STARLINK-1135 4.0 05:53:37 20° NW 05:55:30 39° NNE 05:58:38 10° E
Aureole 2 Rocket 3.6 05:57:41 20° WSW 05:57:41 20° WSW 05:59:34 10° SSW
STARLINK-1141 4.0 05:55:52 19° NW 05:57:51 39° NNE 06:01:00 10° E
Cosmos 1727 Rocket 4.4 05:52:43 10° SW 05:58:25 38° WNW 06:04:10 10° N
Cosmos 1023 Rocket 4.5 05:54:02 10° SSW 05:59:17 65° WNW 06:04:33 10° NNE
STARLINK-1140 4.0 05:58:08 18° NW 06:00:14 40° NNE 06:03:23 10° E
Cosmos 1603 4.0 05:55:34 10° SW 06:01:05 48° NW 06:06:36 10° NNE
STARLINK-1118 2.5 06:00:07 29° W 06:01:14 63° NNW 06:03:52 10° ENE
STARLINK-1149 3.6 05:59:58 19° NW 06:01:35 38° NNE 06:04:12 10° E
Cosmos 1656 Rocket 3.8 05:56:47 10° NW 06:02:22 58° WSW 06:07:54 10° S
Cosmos 2173 Rocket 4.1 05:56:29 10° NNW 06:02:32 51° W 06:08:29 10° SSW
STARLINK-1156 3.9 06:00:23 17° NW 06:02:36 41° NNE 06:05:45 10° E
Cosmos 1943 3.3 05:59:22 10° SW 06:04:53 56° WNW 06:10:27 10° NNE
STARLINK-1148 3.9 06:02:41 16° NW 06:04:58 41° NNE 06:08:09 10° E
STARLINK-1153 3.7 06:03:20 17° NW 06:05:14 39° NNE 06:08:01 10° E
STARLINK-1180 3.7 06:03:32 17° NW 06:05:27 39° NNE 06:08:15 10° E
STARLINK-1174 3.7 06:04:00 17° NW 06:05:56 40° NNE 06:08:43 10° E
STARLINK-1139 3.7 06:04:14 17° NW 06:06:11 40° NNE 06:08:58 10° E
STARLINK-1133 3.7 06:04:25 17° NW 06:06:21 40° NNE 06:09:09 10° E
STARLINK-1151 3.7 06:04:39 17° NW 06:06:36 40° NNE 06:09:24 10° E
STARLINK-1160 3.7 06:05:17 16° NW 06:07:17 40° NNE 06:10:04 10° E
STARLINK-1158 3.9 06:04:55 16° NW 06:07:19 42° NNE 06:10:30 10° E
Okean O Rocket 1.8 06:02:57 10° NNE 06:07:21 75° ESE 06:11:41 10° S
STARLINK-1161 3.7 06:05:30 16° NW 06:07:30 40° NNE 06:10:18 10° E
STARLINK-1145 3.7 06:05:43 16° NW 06:07:43 40° NNE 06:10:32 10° E
Shenzhou-11 Module 3.4 06:06:06 14° SW 06:07:49 25° S 06:10:05 10° ESE
STARLINK-1172 3.7 06:05:55 16° NW 06:07:56 40° NNE 06:10:45 10° E
STARLINK-1182 3.6 06:06:22 16° NW 06:08:24 41° NNE 06:11:12 10° E
CZ-4B DEB 4.1 06:03:05 10° NNE 06:08:35 76° WNW 06:14:02 10° SSW
STARLINK-1164 3.6 06:06:35 16° NW 06:08:37 41° NNE 06:11:25 10° E
STARLINK-1168 3.6 06:06:48 16° NW 06:08:51 41° NNE 06:11:40 10° E
STARLINK-1183 3.6 06:07:27 16° NW 06:09:32 41° NNE 06:12:20 10° E
STARLINK-1181 3.6 06:07:40 16° NW 06:09:45 41° NNE 06:12:33 10° E
STARLINK-1196 3.6 06:08:18 15° NW 06:10:25 41° NNE 06:13:14 10° E
STARLINK-1186 3.6 06:08:44 15° NW 06:10:52 42° NNE 06:13:40 10° E
STARLINK-1185 3.6 06:08:59 15° NW 06:11:08 42° NNE 06:13:56 10° E
SJ-12 4.3 06:07:20 10° N 06:11:16 42° WNW 06:15:10 10° SW
STARLINK-1175 3.6 06:09:10 15° NW 06:11:19 42° NNE 06:14:08 10° E
Cosmos 1151 Rocket 3.9 06:07:08 10° S 06:11:19 54° E 06:15:35 10° NNE
STARLINK-1147 3.6 06:09:23 15° NW 06:11:33 42° NNE 06:14:22 10° E
STARLINK-1146 3.6 06:09:35 15° NW 06:11:46 42° NNE 06:14:35 10° E
STARLINK-1132 3.4 06:09:47 15° NW 06:11:51 44° NNE 06:14:35 10° E
STARLINK-1152 3.6 06:09:50 15° NW 06:12:02 42° NNE 06:14:51 10° E
STARLINK-1195 3.6 06:10:02 15° NW 06:12:13 42° NNE 06:15:02 10° E
STARLINK-1137 3.6 06:10:15 15° NW 06:12:27 42° NNE 06:15:16 10° E
STARLINK-1142 3.6 06:10:29 15° NW 06:12:41 42° NNE 06:15:30 10° E
STARLINK-1127 3.6 06:10:41 15° NW 06:12:53 42° NNE 06:15:42 10° E
STARLINK-1184 3.6 06:10:54 15° NW 06:13:07 43° NNE 06:15:57 10° E
STARLINK-1193 3.6 06:11:07 14° NW 06:13:21 43° NNE 06:16:11 10° E
STARLINK-1194 3.5 06:11:20 14° NW 06:13:34 43° NNE 06:16:24 10° E
STARLINK-1150 3.4 06:11:59 15° NW 06:14:08 45° NNE 06:16:52 10° E
CZ-4B R/B 3.3 06:09:44 10° NNE 06:15:06 81° ESE 06:20:23 10° SSW
STARLINK-1163 3.4 06:13:13 14° NW 06:15:25 45° NNE 06:18:09 10° E
STARLINK-1098 3.6 06:11:56 10° WSW 06:15:58 88° SSE 06:20:04 10° ENE
STARLINK-1177 3.3 06:14:53 14° NW 06:17:09 46° NNE 06:19:53 10° E
STARLINK-1173 3.3 06:14:57 14° NW 06:17:14 47° NNE 06:19:57 10° E
STARLINK-1167 3.3 06:15:23 14° NW 06:17:40 47° NNE 06:20:24 10° E
Cosmos 1862 3.5 06:14:47 10° NNW 06:18:36 46° W 06:22:23 10° SSW
Cosmos 1328 Rocket 4.0 06:14:51 10° S 06:19:16 69° E 06:23:42 10° NNE
Cosmos 2100 Rocket 4.5 06:14:02 10° NNW 06:19:37 36° W 06:25:07 10° SSW
Helios 1A Rocket 3.3 06:16:21 10° NNE 06:20:31 69° ESE 06:24:37 10° S
Cosmos 1140 Rocket 3.8 06:15:40 10° SW 06:20:42 46° WNW 06:25:46 10° NNE
STARLINK-1123 3.5 06:16:49 10° WSW 06:20:53 87° NNW 06:24:57 10° ENE
Cosmos 1954 Rocket 4.1 06:16:15 10° SSW 06:21:32 64° WNW 06:26:51 10° NNE
Cosmos 1484 Rocket 4.0 06:18:35 10° NNW 06:21:41 22° WNW 06:24:47 10° WSW
USA 215 4.1 06:16:19 10° ENE 06:22:18 40° N 06:28:17 10° WNW
Cosmos 407 Rocket 4.2 06:17:42 10° WSW 06:22:32 34° WNW 06:27:21 10° N
STARLINK-1136 3.2 06:20:08 12° NW 06:22:36 50° NNE 06:25:21 10° E
Cosmos 921 Rocket 4.2 06:20:08 10° NW 06:23:31 22° W 06:26:50 10° SSW
MOS 1-B 4.4 06:18:32 10° N 06:24:13 57° WNW 06:29:53 10° SW
GEOS 3 Rocket 4.1 06:20:03 10° NNE 06:25:04 45° NW 06:30:07 10° WSW
STARLINK-1097 3.6 06:21:34 10° WSW 06:25:40 83° NNW 06:29:46 10° ENE
USA 116 4.1 06:22:57 10° SSW 06:25:43 27° W 06:28:27 10° NW
STARLINK-1170 3.0 06:23:55 11° NW 06:26:21 51° NNE 06:28:57 10° E
Cosmos 1340 2.6 06:24:20 10° NNW 06:28:07 87° W 06:31:53 10° S
STARLINK-1070 3.1 06:25:55 12° W 06:28:31 47° NNW 06:31:23 10° ENE
STARLINK-1124 3.3 06:26:14 12° W 06:28:45 42° NNW 06:31:35 10° NE
STARLINK-1066 3.1 06:26:28 12° W 06:29:05 46° NNW 06:31:56 10° ENE
STARLINK-1081 3.2 06:26:42 12° W 06:29:19 46° NNW 06:32:11 10° ENE
STARLINK-1069 3.2 06:27:07 11° W 06:29:45 46° NNW 06:32:36 10° ENE
STARLINK-1085 3.2 06:27:18 11° W 06:29:58 46° NNW 06:32:48 10° ENE
STARLINK-1086 3.2 06:27:36 11° W 06:30:15 45° NNW 06:33:06 10° ENE
STARLINK-1095 3.2 06:27:46 11° W 06:30:26 45° NNW 06:33:16 10° ENE
STARLINK-1099 3.6 06:26:23 10° WSW 06:30:29 78° NNW 06:34:35 10° ENE
STARLINK-1077 3.2 06:28:00 11° W 06:30:40 45° NNW 06:33:31 10° ENE
STARLINK-1075 3.2 06:28:12 11° W 06:30:52 45° NNW 06:33:44 10° ENE
STARLINK-1093 3.2 06:28:25 11° W 06:31:07 45° NNW 06:33:57 10° ENE
STARLINK-1074 3.2 06:28:39 11° W 06:31:22 45° NNW 06:34:12 10° ENE
STARLINK-1087 3.2 06:28:50 11° W 06:31:33 45° NNW 06:34:24 10° ENE
STARLINK-1088 3.2 06:29:03 11° W 06:31:45 45° NNW 06:34:36 10° ENE
STARLINK-1115 3.2 06:29:17 11° W 06:32:01 45° NNW 06:34:51 10° ENE
STARLINK-1076 3.2 06:29:30 11° W 06:32:15 44° NNW 06:35:05 10° ENE
STARLINK-1092 3.2 06:29:44 11° W 06:32:29 44° NNW 06:35:20 10° ENE
STARLINK-1080 3.2 06:29:55 10° W 06:32:40 44° NNW 06:35:31 10° ENE
STARLINK-1090 3.2 06:30:09 10° W 06:32:56 44° NNW 06:35:45 10° NE
STARLINK-1089 3.2 06:30:24 10° W 06:33:11 44° NNW 06:36:02 10° ENE
STARLINK-1107 3.2 06:30:34 10° W 06:33:21 44° NNW 06:36:11 10° ENE
STARLINK-1109 3.2 06:30:47 10° W 06:33:34 44° NNW 06:36:25 10° NE
STARLINK-1091 3.2 06:31:01 10° W 06:33:50 44° NNW 06:36:40 10° NE
STARLINK-1072 3.2 06:31:09 10° W 06:33:59 44° NNW 06:36:49 10° NE
STARLINK-1096 3.2 06:31:25 10° W 06:34:14 43° NNW 06:37:04 10° NE
STARLINK-1079 3.2 06:31:40 10° W 06:34:29 43° NNW 06:37:19 10° NE
Cosmos 220 Rocket 4.1 06:30:21 10° NNW 06:34:35 77° ENE 06:38:47 10° SSE
STARLINK-1116 3.3 06:31:53 10° W 06:34:43 43° NNW 06:37:33 10° NE
STARLINK-1094 3.3 06:32:24 10° W 06:35:13 43° NNW 06:38:03 10° NE
STARLINK-1117 3.3 06:32:34 10° W 06:35:23 43° NNW 06:38:12 10° NE
STARLINK-1104 3.6 06:31:19 10° WSW 06:35:23 74° NNW 06:39:29 10° ENE
STARLINK-1078 3.3 06:32:49 10° W 06:35:37 43° NNW 06:38:27 10° NE
STARLINK-1108 3.3 06:33:03 10° W 06:35:51 43° NNW 06:38:41 10° NE
STARLINK-1071 3.3 06:33:14 10° W 06:36:03 43° NNW 06:38:52 10° NE
STARLINK-1110 3.3 06:33:31 10° W 06:36:20 42° NNW 06:39:10 10° NE
STARLINK-1122 3.3 06:33:56 10° W 06:36:44 42° NNW 06:39:35 10° NE
COSMO-SKYMED 1 4.0 06:33:55 10° SW 06:36:52 18° W 06:39:51 10° NW
STARLINK-1126 3.3 06:34:09 10° W 06:36:57 42° NNW 06:39:47 10° NE
Cosmos 2221 4.2 06:35:00 10° W 06:37:09 13° WNW 06:39:17 10° NW
STARLINK-1082 3.3 06:34:23 10° W 06:37:12 42° NNW 06:40:01 10° NE
Cosmos 2061 Rocket 4.4 06:31:31 10° NNW 06:37:17 40° W 06:42:58 10° SSW
STARLINK-1100 3.3 06:34:38 10° W 06:37:26 42° NNW 06:40:15 10° NE
STARLINK-1083 3.3 06:34:50 10° W 06:37:38 42° NNW 06:40:28 10° NE
STARLINK-1125 3.3 06:35:04 10° W 06:37:52 42° NNW 06:40:42 10° NE
Cosmos 1633 Rocket 3.3 06:34:00 10° NNW 06:38:13 47° W 06:42:25 10° SSW
STARLINK-1162 3.3 06:35:58 10° WNW 06:39:12 60° NNE 06:42:25 10° ESE
Cosmos 1515 Rocket 4.0 06:35:08 10° S 06:39:33 69° E 06:43:58 10° NNE
STARLINK-1144 3.6 06:36:07 10° WSW 06:40:12 70° NNW 06:44:19 10° ENE
Cosmos 1346 Rocket 2.7 06:36:19 10° NNW 06:40:15 80° W 06:44:07 10° S
STARLINK-1157 3.3 06:38:03 10° WNW 06:41:17 62° NNE 06:44:30 10° ESE
Cosmos 1666 Rocket 4.1 06:37:38 10° NNW 06:41:43 36° W 06:45:45 10° SSW
Cosmos 1933 Rocket 3.8 06:37:57 10° N 06:42:19 77° E 06:46:39 10° SSE
Cosmos 1725 Rocket 4.3 06:37:18 10° NNW 06:43:13 46° W 06:49:09 10° SSW
STARLINK-1159 3.3 06:40:18 10° WNW 06:43:32 64° NNE 06:46:46 10° ESE
STARLINK-1128 3.6 06:40:42 10° WSW 06:44:43 66° NNW 06:48:46 10° ENE
STARLINK-1103 3.7 06:41:04 10° WSW 06:45:08 67° NNW 06:49:13 10° ENE
AQUARIUS 4.4 06:41:03 10° NNE 06:45:35 78° ESE 06:50:05 10° S
Cosmos 2123 Rocket 4.3 06:41:47 10° SSW 06:47:51 48° WNW 06:53:55 10° N
